Participated 3 times
Between 2010 and 2013
Julien El Farès, France
Tour de France 2026 starts from Barcelona, Spain in

Stats and Facts from
Tour de France.

2026   2025   2024   2023  2022  2021  2020  2019   2018  2017   2016   2015  2014  2013   2012   2011  2010   2009   2008   2007   2006   2005   2004   2003   2002   2001   2000   1999   1998   1997  1996   1995   1994   1993   1992  1991   1990   1989   1988   1987   1986   1985   1984   1983  1982  1981   1980   1979  1978  1977   1976  1975  1974  1973   1972   1971   1970  1969   1968   1967   1966   1965  1964  1963   1962   1961   1960   1959   1958   1957  1956   1955   1954   1953   1952  1951  1950  1949   1948  1947  1939   1938   1937   1936   1935   1934   1933  1932   1931   1930  1929   1928   1927   1926  1925  1924  1923   1922   1921   1920   1919  1914   1913   1912   1911   1910  1909   1908   1907   1906  1905  1904   1903 

Tourstats
Sitemap

After stage 21 - 2025:
 16451 starters.
  5464 different riders.
  689 teams.
  2398 stages.
  470 restdays.
  466506.50 km.
  5925 abandoned riders.

Click map for 1952 route.
Facts from Tour de France 1952 Additional info and images from 1952.
  |   Stages.  |   Stage winners.  |   Days in jerseys.  |   Teams.  |   All riders.  |   All riders by age.  |   All riders from.  |  

  |   Rookies.  |   Withdrawls.  |   Average speed.  |   GC.  |   Polka  |   Green  |   White  |   Summits. (In tour)  |   Miscellaneous.  |  

Stage 21 on July 17th. 1952
Pick a stage:  1  2  3  4  5  6  7  8  9  10  11  12  13  14  15  16  17  18  19  20  21  22  23  

After stage 21:    Fausto Coppi  
  LimogesLe Puy-de-Dôme | Dist: 245.00km. | Winner: Fausto Coppi

Podium
3  Roche Vendeix Fausto Coppiafter160.00 km.

3  La Croix Morand Gino Bartaliafter182.00 km.

1  Puy de Dome Fausto Coppiafter245.00 km.


Average speed for all riders in stage:  24,800 km./hr.

1
 Fausto Coppi  Italy09h 40' 51"=25,308  km/h

2
 Jan Nolten  Holland09h 41' 01"+  00:00:10 =25,300  km/h

3
 Gino Bartali  Italy09h 41' 22"+  00:00:31 =25,285  km/h

4  Raphaël Geminiani  France09h 41' 37"+  00:00:46 =25,274  km/h

5  Andrea Carrea  Italy09h 41' 42"+  00:00:51 =25,271  km/h

6  Jean Robic  France09h 42' 04"+  00:01:13 =25,255  km/h

7  Antonio Gelabert  Spain09h 42' 30"+  00:01:39 =25,236  km/h

8  Jean De Gribaldy  Nord Est-Centre09h 43' 16"+  00:02:25 =25,203  km/h

9  Wout Wagtmans  Holland09h 43' 23"+  00:02:32 =25,198  km/h

10  Stan Ockers  Belgium09h 43' 24"+  00:02:33 =25,197  km/h

11  Fiorenzo Magni  Italy09h 43' 58"+  00:03:07 =25,173  km/h

12  Gottfried Weilenmann  Switzerland09h 44' 07"+  00:03:16 =25,166  km/h

13  Bernardo Ruíz  Spain09h 44' 15"+  00:03:24 =25,160  km/h

14  Eduard Van Ende  Belgium09h 44' 27"+  00:03:36 =25,152  km/h

15  Maurice Neyt  Belgium09h 45' 13"+  00:04:22 =25,119  km/h

16  Alexandre Close  Belgium09h 45' 17"+  00:04:26 =25,116  km/h

17  Vincent Vitetta  Sud Est09h 45' 27"+  00:04:36 =25,109  km/h

18  Marcel Zelasco  North Africa09h 45' 43"+  00:04:52 =25,097  km/h

19  Adolphe Deledda  Nord Est-Centre09h 46' 02"+  00:05:11 =25,084  km/h

20  Antonin Rolland  France09h 46' 06"+  00:05:15 =25,081  km/h

21  Franco Franchi  Italy09h 46' 24"+  00:05:33 =25,068  km/h

22  Jacques Marinelli  Paris09h 47' 14"+  00:06:23 =25,033  km/h

23  Gilbert Bauvin  Nord Est-Centre09h 47' 17"+  00:06:26 =25,031  km/h

24  Jean-Baptiste Dotto  France09h 47' 35"+  00:06:44 =25,018  km/h

25  Jean Le Guilly  Ouest-Sud Ouest09h 47' 58"+  00:07:07 =25,001  km/h

26  José Serra Gil  Spain09h 48' 00"+  00:07:09 =25,000  km/h

27  Fiorenzo Crippa  Italy09h 48' 12"+  00:07:21 =24,991  km/h

28  Francisco Masip  Spain09h 48' 47"+  00:07:56 =24,967  km/h

29  Luciano Pezzi  Italy09h 49' 10"+  00:08:19 =24,950  km/h

30  Alfredo Martini  Italy09h 49' 10"+  00:08:19 =24,950  km/h

31  Mario Baroni  Italy09h 50' 05"+  00:09:14 =24,912  km/h

32  Jean Malléjac  Ouest-Sud Ouest09h 50' 28"+  00:09:37 =24,896  km/h

33  Robert Bonnaventure  France09h 50' 29"+  00:09:38 =24,895  km/h

34  Georges Decaux  Paris09h 50' 52"+  00:10:01 =24,879  km/h

35  Carlo Lafranchi  Switzerland09h 51' 49"+  00:10:58 =24,839  km/h

36  Hans Dekkers  Holland09h 52' 10"+  00:11:19 =24,824  km/h

37  Andrès Trobat  Spain09h 52' 23"+  00:11:32 =24,815  km/h

38  Johny Goedert  Luxembourg09h 52' 27"+  00:11:36 =24,812  km/h

39  Ettore Milano  Italy09h 52' 27"+  00:11:36 =24,812  km/h

40  Maurice Quentin  France09h 52' 39"+  00:11:48 =24,804  km/h

41  Jacques Renaud  Paris09h 52' 40"+  00:11:49 =24,803  km/h

42  Rene Rotta  Sud Est09h 52' 40"+  00:11:49 =24,803  km/h

43  Jacques Vivier  Ouest-Sud Ouest09h 52' 58"+  00:12:07 =24,791  km/h

44  Raymond Scardin  Ouest-Sud Ouest09h 53' 08"+  00:12:17 =24,784  km/h

45  Wim van Est  Holland09h 53' 17"+  00:12:26 =24,777  km/h

46  Siro Bianchi  Sud Est09h 53' 34"+  00:12:43 =24,766  km/h

47  Thijs Roks  Holland09h 54' 10"+  00:13:19 =24,741  km/h

48  Alois De Hertog  Belgium09h 54' 13"+  00:13:22 =24,738  km/h

49  Giovanni Corrieri  Italy09h 54' 20"+  00:13:29 =24,734  km/h

50  Giulio Bresci  Italy09h 54' 21"+  00:13:30 =24,733  km/h

51  Jean Goldschmit  Luxembourg09h 54' 24"+  00:13:33 =24,731  km/h

52  Gerrit Voorting  Holland09h 54' 24"+  00:13:33 =24,731  km/h

53  José Gil Sole  Spain09h 54' 24"+  00:13:33 =24,731  km/h

54  Settimo Sabbadini  Ouest-Sud Ouest09h 55' 03"+  00:14:12 =24,704  km/h

55  Marcel Fernandez  North Africa09h 55' 31"+  00:14:40 =24,684  km/h

56  Pierre Pardoën  Nord Est-Centre09h 55' 59"+  00:15:08 =24,665  km/h

57  Walter Diggelmann  Switzerland09h 56' 29"+  00:15:38 =24,644  km/h

58  Ahmed Kebaïli  North Africa09h 56' 30"+  00:15:39 =24,644  km/h

59  Jean Delahaye  Ouest-Sud Ouest09h 56' 32"+  00:15:41 =24,642  km/h

60  Lucien Teisseire  France09h 56' 43"+  00:15:52 =24,635  km/h

61  André Bernard  Ouest-Sud Ouest09h 57' 01"+  00:16:10 =24,622  km/h

62  Roger Decock  Belgium09h 58' 05"+  00:17:14 =24,579  km/h

63  André Rosseel  Belgium09h 58' 40"+  00:17:49 =24,555  km/h

64  Roger Rossinelli  Nord Est-Centre10h 00' 00"+  00:19:09 =24,500  km/h

65  Henk Faanhof  Holland10h 00' 17"+  00:19:26 =24,488  km/h

66  Hein Van Breenen  Holland10h 01' 41"+  00:20:50 =24,431  km/h

67  Lucien Lazarides  France10h 01' 56"+  00:21:05 =24,421  km/h

68  Raoul Remy  France10h 01' 56"+  00:21:05 =24,421  km/h

69  Nello Lauredi  France10h 02' 14"+  00:21:23 =24,409  km/h

70  Heinrich Spuhler  Switzerland10h 04' 09"+  00:23:18 =24,332  km/h

71  Eugène Telotte  Paris10h 04' 09"+  00:23:18 =24,332  km/h

72  Giuseppe Mirando  Sud Est10h 04' 16"+  00:23:25 =24,327  km/h

73  Vincent Soler  North Africa10h 06' 07"+  00:25:16 =24,253  km/h

74  Jean Bertaina  Sud Est10h 08' 31"+  00:27:40 =24,157  km/h

75  Bernard Gauthier  France10h 09' 27"+  00:28:36 =24,120  km/h

76  Paul Giguet  Sud Est10h 10' 31"+  00:29:40 =24,078  km/h

77  Adolphe Pezzuli  Sud Est10h 13' 07"+  00:32:16 =23,976  km/h

78  Henri Paret  North Africa10h 13' 28"+  00:32:37 =23,962  km/h


Todays birthdays.

1889 • Adolphe Landon
1890 • Jules Lebreton
1904 • Julien Grujon
1909 • Erich Metze
1926 • Giovanni Rossi
1928 • Serge Blusson
1928 • Alois Vansteenkiste
1931 • André Dupré
1934 • Alfred Rüegg
1962 • Francisco Espinosa
1962 • Paul Kimmage
1963 • Federico Muñoz
1966 • Andrea Tafi
1971 • Emmanuel Magnien
1973 • Paolo Savoldelli
1985 • Mikhail Ignatyev

 

Optimized for Chrome - Edge
and Opera browsers.